Regional Weather Roundup
Issued by NWS

Home | Current Version | Previous Version | Graphics & Text | Print | Product List | Glossary On
Versions: 1 2 3 4 5 6 7 8 9 10 11 12 13 14 15 16 17 18 19 20 21 22 23 24 25 26 27 28 29 30 31 32 33 34 35 36 37 38 39 40 41 42 43 44 45 46 47 48 49 50
553
ASUS43 KFSD 211710
RWRSD

WEATHER ROUNDUP FOR SOUTH DAKOTA
NATIONAL WEATHER SERVICE SIOUX FALLS SD
1200 PM CDT MON AUG 21 2017

NOTE: "FAIR" INDICATES FEW OR NO CLOUDS BELOW 12,000 FEET WITH NO
SIGNIFICANT WEATHER AND/OR OBSTRUCTIONS TO VISIBILITY.


SDZ001>005-009-010-012>017-211800-
NORTHWEST AND NORTH CENTRAL SOUTH DAKOTA

CITY           SKY/WX    TMP DP  RH WIND       PRES   REMARKS
BUFFALO          N/A     76  40  27 N21       30.02R
FAITH            N/A     71  62  73 W5        30.06R
MOBRIDGE       CLOUDY    71  62  73 W9        29.98S
$$

SDZ012>016-024>037-041>051-057-063-072>074-211800-
SOUTHWEST AND SOUTH CENTRAL SOUTH DAKOTA

CITY           SKY/WX    TMP DP  RH WIND       PRES   REMARKS
RAPID CTY ARPT SUNNY     74  51  44 N21G30    30.09R
PIERRE         CLOUDY    64  61  90 W5        29.97R
CUSTER           N/A     71  40  32 N8        30.19R
ELLSWORTH AFB  SUNNY     74  51  44 N18G25    30.09R
PHILIP         CLOUDY    72  64  76 CALM      30.02S
PINE RIDGE     PTSUNNY   76  62  62 N14       30.06R
SPEARFISH      FAIR      70  41  35 VRB7G16   30.16F
WINNER         PTSUNNY   63  61  93 S8        29.97F
$$

SDZ004>011-016>023-039-040-211800-
NORTHEAST SOUTH DAKOTA

CITY           SKY/WX    TMP DP  RH WIND       PRES   REMARKS
ABERDEEN       CLOUDY    63  59  87 NW3       29.97R
WATERTOWN      CLOUDY    64  62  93 S15       29.92F
BROOKINGS      LGT RAIN  66  64  93 S8        30.02F
SISSETON         N/A     66  61  84 SE10      29.90F
$$

SDZ017-020-022-023-036>040-048>070-211800-
SOUTHEAST SOUTH DAKOTA

CITY           SKY/WX    TMP DP  RH WIND       PRES   REMARKS
SIOUX FALLS    TSTM      70  69  97 NE8       29.99R FOG
HURON          LGT RAIN  66  65  96 S13       29.97F
CHAMBERLAIN    LGT RAIN  65  65 100 E15G30    29.90F
MITCHELL       CLOUDY    71  67  87 N17G23    29.99S
YANKTON        CLOUDY    79  69  71 SE13      29.91F
$$

ABBREVIATIONS USED IN REMARKS
   TC - TEMPERATURE IN CELSIUS
  WCI - WIND CHILL INDEX
   HX - HEAT INDEX
  VSB - VISIBILITY





USA.gov is the U.S. government's official web portal to all federal, state and local government web resources and services.